Rechercher aéroport 
image banner adimage banner adimage banner ad
image banner ad

8PA9 - Sons Ii

Situé à Lahaska, United States

ICAO - 8PA9, IATA -

Données fournies par Airmate  

Information générale

Coordonnées: N40°19'32" W74°59'29"
Élévation : 200 feet MSL.
Variation magnétique : -12° East
Voir autres Aéroports à Pennsylvania

Données opérationnelles

Special qualification required
Heure actuelle UTC:
Heure actuelle locale:
Météo à : KDYL - Doylestown ( 11 km )
METAR: KDYL 270454Z AUTO 00000KT 10SM FEW085 21/17 A2996 RMK AO2 SLP138 T02060167 403330206
Voir NOTAMs / SUP AIP / TFR affectant cet aéroport [VIEW]
Fréquences de communication: [VIEW]

Pistes:

Coordonnées de l'aéroport

Adresse: Lahaska United States

Vue satellite de 8PA9